This is the latest recevied weather packets stored in our database for station/object SV9TNF-56. If no packets are shown the sender has not sent any weather packets the latest 10 day(s).
| Time | Temp. | Humidity | Pressure | Rain* | Wind** | Luminosity | Snow |
|---|---|---|---|---|---|---|---|
| 1787867804 | 25.56° C | 68% | 1019 hPa | 0 mm | 8.05 m/s, 254° | - | - |
| 1787867504 | 25.56° C | 63% | 1019 hPa | 0 mm | 6.26 m/s, 282° | - | - |
| 1787867203 | 25.56° C | 65% | 1019 hPa | 0 mm | 12.52 m/s, 324° | - | - |
| 1787866903 | 25.56° C | 64% | 1019 hPa | 0 mm | 10.28 m/s, 348° | - | - |
| 1787866603 | 25.56° C | 69% | 1019 hPa | 0 mm | 9.83 m/s, 294° | - | - |
| 1787866303 | 25.56° C | 68% | 1019 hPa | 0 mm | 12.07 m/s, 246° | - | - |
| 1787866003 | 25.56° C | 67% | 1019 hPa | 0 mm | 3.13 m/s, 288° | - | - |
| 1787865705 | 25.56° C | 66% | 1019 hPa | 0 mm | 5.81 m/s, 270° | - | - |
| 1787865403 | 25.56° C | 67% | 1019 hPa | 0 mm | 7.6 m/s, 300° | - | - |
| 1787865103 | 25.56° C | 67% | 1019 hPa | 0 mm | 5.36 m/s, 336° | - | - |
| 1787864803 | 26.11° C | 66% | 1019 hPa | 0 mm | 8.05 m/s, 265° | - | - |
| 1787864503 | 26.11° C | 63% | 1019 hPa | 0 mm | 4.47 m/s, 264° | - | - |
| 1787864202 | 26.11° C | 63% | 1018.6 hPa | 0 mm | 13.86 m/s, 238° | - | - |
| 1787863902 | 26.11° C | 63% | 1018.6 hPa | 0 mm | 14.75 m/s, 240° | - | - |
| 1787863602 | 26.11° C | 62% | 1019 hPa | 0 mm | 7.15 m/s, 89° | - | - |
| 1787863302 | 26.11° C | 63% | 1019 hPa | 0 mm | 8.05 m/s, 216° | - | - |
| 1787863002 | 25.56° C | 64% | 1019 hPa | 0 mm | 4.92 m/s, 150° | - | - |
| 1787862702 | 25.56° C | 67% | 1019 hPa | 0 mm | 6.26 m/s, 160° | - | - |
| 1787862402 | 25.56° C | 69% | 1019 hPa | 0 mm | 10.28 m/s, 290° | - | - |
| 1787862102 | 25.56° C | 68% | 1019 hPa | 0 mm | 16.09 m/s, 324° | - | - |
| 1787861802 | 26.11° C | 64% | 1019 hPa | 0 mm | 11.18 m/s, 263° | - | - |
| 1787861502 | 26.11° C | 63% | 1018.6 hPa | 0 mm | 2.24 m/s, 204° | - | - |
| 1787861202 | 26.11° C | 62% | 1018.6 hPa | 0 mm | 4.92 m/s, 70° | - | - |
| 1787860901 | 26.11° C | 61% | 1018.6 hPa | 0 mm | 12.07 m/s, 160° | - | - |
| 1787860601 | 26.67° C | 62% | 1018.6 hPa | 0 mm | 12.52 m/s, 227° | - | - |
* Rain latest hour (hover to see other rain measurements)
** Current wind speed in m/s (hover to see current wind gust speed)